Regional Weather Roundup
Issued by NWS

Home | Current Version | Previous Version | Graphics & Text | Print | Product List | Glossary On
Versions: 1 2 3 4 5 6 7 8 9 10 11 12 13 14 15 16 17 18 19 20 21 22 23 24 25 26 27
000
ASUS45 KBOU 270807
RWRCO

WEATHER ROUNDUP FOR COLORADO
NATIONAL WEATHER SERVICE DENVER/BOULDER CO
200 AM MDT MON MAR 27 2017

NOTE: "FAIR" INDICATES FEW OR NO CLOUDS BELOW 12000 FEET WITH NO
SIGNIFICANT WEATHER AND/OR OBSTRUCTIONS TO VISIBILITY.

COZ001>005-013-030-031-270900-
...NORTHWEST COLORADO...

CITY           SKY/WX    TMP DP  RH WIND       PRES   REMARKS
CRAIG          MOCLDY    29  23  78 CALM      29.98S
HAYDEN         CLOUDY    34  25  69 E3        29.98S
MEEKER         CLOUDY    31  25  78 NE3       29.99S
MOUNT WERNER   NOT AVBL
STEAMBOAT SPGS MOCLDY    32  28  85 CALM      29.99S
WALDEN         NOT AVBL
$$

COZ006>008-011-270900-
...WEST CENTRAL VALLEYS...

CITY           SKY/WX    TMP DP  RH WIND       PRES   REMARKS
GRAND JUNCTION CLOUDY    43  25  49 E5        29.95S
MONTROSE       CLOUDY    41  32  70 SE13      30.01S
EAGLE          FAIR      32  24  72 E3        30.02S
RIFLE          CLOUDY    34  27  75 CALM      29.99S
DELTA          MOCLDY    42  29  60 E6        29.99S
NUCLA          MOCLDY    39  32  75 SE9       30.03F
$$

COZ017>023-064>068-270900-
...SOUTHWEST COLORADO...

CITY           SKY/WX    TMP DP  RH WIND       PRES   REMARKS
DURANGO        FAIR      33  26  75 NE3       30.02S
CORTEZ         FAIR      32  30  92 CALM      30.01F
PAGOSA SPRINGS FAIR      34  32  93 CALM      30.07R
TELLURIDE      FAIR      32  24  72 CALM      30.10S
WOLF CREEK PAS SNOW      21  21 100 S14       30.16F VSB 1/4 WCI   8
$$

COZ009-010-012-014-032>034-037-058>063-270900-
...CENTRAL COLORADO...

CITY           SKY/WX    TMP DP  RH WIND       PRES   REMARKS
ASPEN          FAIR      29  22  75 S8        30.01F WCI  21
BUENA VISTA    FAIR      30  22  72 S5        30.01F WCI  26
COPPER MTN     NOT AVBL
BERTHOUD PASS  FAIR      16   5  62 NW28G33   30.03S WCI  -4
COTTONWOOD PAS FAIR      36  19  51 W8        30.04S
GUNNISON       FAIR      30  25  81 CALM      30.05S
KREMMLING      FAIR      32  28  86 CALM      30.02S
LEADVILLE      FAIR      27  18  69 N10       30.03F WCI  17
MONARCH PASS   FOG       21  19  93 W32       30.17F VSB 1/2 WCI   2
SALIDA         FAIR      37  32  84 NW3       30.09S
SUNLIGHT       MOCLDY    25  21  86 SW9G18    30.11S WCI  15
WILKERSON PASS CLOUDY    25  23  93 SW10G17   30.07S FOG     WCI  15
$$

COZ069>075-270900-
...SAN LUIS VALLEY/SANGRE DE CRISTO MOUNTAINS...

CITY           SKY/WX    TMP DP  RH WIND       PRES   REMARKS
ALAMOSA        FAIR      29  27  92 CALM      30.02S
LA VETA PASS   NOT AVBL
SAGUACHE       FAIR      34  23  64 NW13      30.03F WCI  25
$$

COZ035-036-038>040-270900-
...NORTHERN COLORADO FRONT RANGE...

CITY           SKY/WX    TMP DP  RH WIND       PRES   REMARKS
DENVER INTL AP FAIR      32  30  92 SE12      29.95F WCI  23
DMNS CITY PARK   N/A     40  38  95 N1        29.96F
AURORA         PTCLDY    39  39 100 SE6       29.97S
FRONT RANGE AP FAIR      36  34  93 SE7       29.97S
ERIE MUNI ARPT FAIR      38  37  92 CALM      29.96S
BOULDER MUN AP MOCLDY    43  41  93 NW3       29.96S
CENTENNIAL     FAIR      37  33  85 CALM      29.96S
BROOMFIELD     FAIR      41  37  87 CALM      29.97S
FORT COLLINS   FAIR      39  34  82 CALM      29.96F
LONGMONT       FAIR      40  38  89 CALM      29.98S
$$

COZ041-046-047-076>085-087-088-270900-
...PIKES PEAK/PALMER DIVIDE AND SOUTHERN FOOTHILLS...

CITY           SKY/WX    TMP DP  RH WIND       PRES   REMARKS
COLO. SPRINGS  FAIR      39  37  92 S6        29.99F
A. F. ACADEMY  MOCLDY    37  37 100 SE6       29.98S
SCHRIEVER AFB  FAIR      39  37  93 CALM      29.99F
ELLICOTT         N/A    N/A N/A N/A CALM      29.97F
FALCON         FOG       37  37  98 W3        30.00S VSB 1/2
FORT CARSON    FAIR      38  37  92 SE7       29.97F
LIMON          CLOUDY    32  32 100 CALM      29.98S
MONUMENT HILL  MOCLDY    34  32  93 S6        30.00S WCI  29
TRINIDAD       FAIR      36  33  89 W8        29.99R
$$

COZ042>045-048>051-090-091-270900-
...NORTHEAST COLORADO...

CITY           SKY/WX    TMP DP  RH WIND       PRES   REMARKS
GREELEY ARPT   FAIR      29  26  89 NW5       29.97F WCI  24
AKRON          FAIR      37  32  82 NW6       29.95F
BURLINGTON     FAIR      35  33  92 W9        29.94F WCI  28
WRAY           NOT AVBL
STERLING       FAIR      32  32 100 W6        29.95S WCI  26
HOLYOKE        FAIR      41  37  87 NW9       29.94S
FORT MORGAN    FAIR      33  31  94 CALM      29.96S
$$

COZ086-089-092>099-270900-
...SOUTHEAST COLORADO...

CITY           SKY/WX    TMP DP  RH WIND       PRES   REMARKS
PUEBLO         FAIR      37  34  89 CALM      29.97S
LA JUNTA       FAIR      38  34  85 W8        29.97S
LAMAR          FAIR      29  26  89 SW8       29.95F WCI  21
SPRINGFIELD      N/A     30  29  96 NW8       29.95F WCI  22
$$




USA.gov is the U.S. government's official web portal to all federal, state and local government web resources and services.